Regional Weather Roundup
Issued by NWS Albany, NY

Home | Current Version | Previous Version | Graphics & Text | Print | Product List | Glossary Off
Versions: 1 2 3 4 5 6 7 8 9 10 11 12 13 14 15 16 17 18 19 20 21 22 23 24 25 26 27

000
ASUS41 KALY 201210
RWRALY

NEW YORK STATE HOURLY WEATHER ROUNDUP
NATIONAL WEATHER SERVICE ALBANY NY
800 AM EDT FRI OCT 20 2017

NOTE: "FAIR" INDICATES FEW OR NO CLOUDS BELOW 12,000 FEET WITH NO
SIGNIFICANT WEATHER AND/OR NO OBSTRUCTIONS TO VISIBILITY.

NYZ032-033-038>043-046>054-057>066-NYZ062>081-082-084-201300-
EAST


CITY           SKY/WX    TMP DP  RH WIND       PRES   REMARKS
ALBANY         FAIR      50  41  71 CALM      30.14R
GLENS FALLS    FAIR      40  36  86 CALM      30.11R
POUGHKEEPSIE   FAIR      43  41  93 CALM      30.12R
NEWBURGH       CLEAR     48  45  87 CALM      30.14R
MONTGOMERY     FAIR      53  41  63 W10       30.14R
WHITE PLAINS   FAIR      54  45  71 NW3       30.13R
ISLIP          FAIR      57  49  74 NW8       30.12R
NEW YORK CITY  MOCLDY    62  45  53 NW9       30.14R
CENTRAL PARK   FAIR      58  46  64 W7        30.17R
$$

NYZ005>009-017-018-044>046-055-056-201300-
CENTRAL


CITY           SKY/WX    TMP DP  RH WIND       PRES   REMARKS
FULTON         FAIR      47  41  80 W3        30.19R
SYRACUSE       FAIR      49  40  71 W9        30.19R
ROME           FAIR      43  42  97 CALM      30.19R
ELMIRA         FAIR      43  42  97 W3        30.22R
BINGHAMTON     FAIR      46  38  73 W5        30.19R
MONTICELLO     FAIR      46  39  76 SW5       30.17R
$$

NYZ026>034-041>043-087-201300-
NORTH


CITY           SKY/WX    TMP DP  RH WIND       PRES   REMARKS
WATERTOWN      FAIR      43  40  89 CALM      30.18R
FORT DRUM      NOT AVBL
OGDENSBURG     FAIR      46  42  83 W3        30.14R
MASSENA        FAIR      48  40  73 SW8       30.12R
SARANAC LAKE   FAIR      43  37  79 W6        30.10R
PLATTSBURGH    FAIR      53  36  52 W7        30.07R
$$

NYZ001>004-010>016-019>021-085-201300-
WEST


CITY           SKY/WX    TMP DP  RH WIND       PRES   REMARKS
NIAGARA FALLS  FAIR      48  37  65 W3        30.23R
BUFFALO        FAIR      44  39  82 S5        30.24R
DUNKIRK        FAIR      43  40  89 SW3       30.26R
JAMESTOWN      LGT RAIN  45  43  93 VRB3      30.27R
WELLSVILLE     FAIR      48  40  73 W10       30.26R
ROCHESTER      MOCLDY    44  39  82 W6        30.23R
$$

             KEY
       WCI = WIND CHILL INDEX
       VSB = VISIBILITY
       HX  = HEAT INDEX
$$




USA.gov is the U.S. government's official web portal to all federal, state and local government web resources and services.